Location: Stoke Bliss
(52.2667°N, 2.5167°W)
Time: 14:34:05
(UTC+00:00)

USA 234 - Pass Details

Date: 03 March 2021
Orbit: 1102 x 1105 km, 123.0° (Epoch: 13 April)

Event Time Altitude Azimuth Distance (km) Brightness Sun altitude
Exits shadow 19:39:57 22° 78° (ENE) 2,204 4.3 -17.0°
Maximum altitude 19:43:48 43° 136° (SE) 1,516 3.6 -17.6°
Drops below altitude 10° 19:49:57 10° 207° (SSW) 2,956 5.7 -18.5°
Sets 19:52:35 0° 214° (SSW) 3,911 6.4 -18.9°
